Flag for U.S.A. Weather past 2 weeks in Wheaton, Illinois, U.S.A.

Now
52 °F

Clear.


Feels Like: 51 °F
Forecast: 58 / 76 °F
Wind: 5 mph from North

Location: Dupage Airport

Current Time: Jul 24, 2014 at 6:35:47 AM

Latest Report: Jul 24, 2014 at 5:52 AM


Visibility: 10 mi

Pressure: 30.15 "Hg

Humidity: 89%

Dew point: 49 °F

Location of WheatonLocation

Historic Weather in Wheaton — Graph

°F

Wheaton temperature yesterday

Maximum temperature yesterday: 77 °F (at 1:52 PM)
Minimum temperature yesterday: 55 °F (at 11:52 PM)
Average temperature yesterday: 68 °F

Past Weeks' High & Low Weather Summary

 TemperatureHumidityPressure
High86 °F (Jul 22, 6:52 PM)97% (Jul 13, 12:52 AM)30.21 "Hg (Jul 13, 12:52 AM)
Low51 °F (Jul 16, 4:52 AM)35% (Jul 10, 1:52 PM)29.79 "Hg (Jul 14, 2:52 PM)
Average70 °F68%30.02 "Hg
* Reported Jul 9 7:52 AM — Jul 24 4:52 AM, Wheaton, Weather by CustomWeather, © 2014

Note: Actual official high and low records may vary slightly from our data, if they occured in-between our weather recording intervals... More about our weather records

Advertising

Wheaton weather history for previous 24 hours

 ConditionsComfort  
Time TempWeatherWind HumidityBarometerVisibility
4:52 AM
Jul 24
53 °FClear.5 mph89%30.15 "Hg10 mi
3:52 AM53 °FClear.6 mph89%30.13 "Hg10 mi
2:52 AM53 °FClear.7 mph86%30.13 "Hg10 mi
1:52 AM53 °FClear.6 mph86%30.14 "Hg10 mi
12:52 AM54 °FClear.6 mph83%30.14 "Hg10 mi
11:52 PM
Jul 23
55 °FClear.6 mph80%30.14 "Hg10 mi
10:52 PM56 °FClear.7 mph75%30.13 "Hg10 mi
9:52 PM58 °FClear.7 mph70%30.14 "Hg10 mi
8:52 PM62 °FSunny.12 mph62%30.13 "Hg10 mi
7:52 PM65 °FSunny.12 mph61%30.14 "Hg10 mi
6:52 PM68 °FSunny.15 mph61%30.13 "Hg10 mi
5:52 PM72 °FPassing clouds.13 mph57%30.12 "Hg10 mi
4:52 PM74 °FPassing clouds.15 mph50%30.11 "Hg10 mi
3:52 PM77 °FSunny.17 mph44%30.11 "Hg10 mi
2:52 PM77 °FSunny.18 mph40%30.12 "Hg10 mi
1:52 PM77 °FSunny.21 mph44%30.13 "Hg10 mi
12:52 PM76 °FSunny.23 mph43%30.14 "Hg10 mi
11:52 AM75 °FSunny.17 mph50%30.14 "Hg10 mi
10:52 AM74 °FSunny.14 mph52%30.13 "Hg10 mi
9:52 AM71 °FSunny.12 mph59%30.13 "Hg10 mi
8:52 AM69 °FSunny.16 mph63%30.12 "Hg10 mi
7:52 AM66 °FSunny.15 mph70%30.11 "Hg10 mi
6:52 AM64 °FSunny.17 mph75%30.09 "Hg10 mi
Weather by CustomWeather, © 2014

See weather overviewHow to use our weather pages